Randolph, MN

6:01 AM CST on February 11, 2016 (GMT -0600)
Stanton

Weather History for KSYN - June, 2013

Change the Weather History Date:

Thursday, June 13, 2013

  Actual Average (KLVN) Record (KLVN)
Temperature  
Mean Temperature 66 °F -  
Max Temperature 78 °F 81 °F 98 °F (1956)
Min Temperature 56 °F 56 °F 38 °F (1969)
Cooling Degree Days 2    
Growing Degree Days 16 (Base 50)    
Moisture  
Dew Point 53 °F    
Average Humidity 61    
Maximum Humidity 89    
Minimum Humidity 41    
Precipitation  
Precipitation 0.00 in - - ()
Sea Level Pressure  
Sea Level Pressure 30.03 in    
Wind  
Wind Speed 7 mph (North)    
Max Wind Speed 16 mph    
Max Gust Speed 18 mph    
Visibility 10 miles    
Events      
Averages and records for this station are not official NWS values.
T = Trace of Precipitation, MM = Missing Value Source: NWS Daily Summary

Daily Weather History Graph

Daily Weather History Graph

Search for Another Location

Airport or City:

Trip Planner

Search our weather history database for the weather conditions in past years. The results will help you decide how hot, cold, wet, or windy it might be!

Date:

Astronomy

Jun. 13, 2013 Rise Set
Actual Time 5:26 AM CDT 8:57 PM CDT
Civil Twilight 4:50 AM CDT 9:34 PM CDT
Nautical Twilight 4:01 AM CDT 10:23 PM CDT
Astronomical Twilight 2:59 AM CDT 11:25 PM CDT
Moon 10:13 AM CDT (6/13) 11:54 PM CDT (6/13)
Length of Visible Light 16h 44m
Length of Day
15h 31m
Waxing Crescent, 22% of the Moon is Illuminated
Jun 13
Waxing Crescent
Jun 16
First Quarter
Jun 23
Full
Jun 29
Last Quarter
Jul 8
New

Hourly Weather History & Observations

Time (CDT) Temp. Dew Point Humidity Pressure Visibility Wind Dir Wind Speed Gust Speed Precip Events Conditions
12:13 AM 66.9 °F 52.5 °F 60% 29.89 in 10.0 mi North 9.2 mph - N/A   Scattered Clouds
12:33 AM 66.4 °F 51.8 °F 59% 29.91 in 10.0 mi NNW 16.1 mph - N/A   Clear
12:54 AM 65.7 °F 51.3 °F 60% 29.92 in 10.0 mi NNW 10.4 mph - N/A   Clear
1:13 AM 64.8 °F 51.3 °F 62% 29.91 in 10.0 mi North 8.1 mph - N/A   Clear
1:33 AM 64.4 °F 50.9 °F 62% 29.93 in 10.0 mi North 9.2 mph - N/A   Clear
1:54 AM 63.7 °F 50.5 °F 62% 29.94 in 10.0 mi North 9.2 mph - N/A   Clear
2:13 AM 63.5 °F 50.5 °F 63% 29.95 in 10.0 mi NNW 5.8 mph - N/A   Mostly Cloudy
2:33 AM 63.3 °F 50.9 °F 64% 29.95 in 10.0 mi North 5.8 mph - N/A   Mostly Cloudy
2:54 AM 61.9 °F 50.5 °F 66% 29.95 in 10.0 mi NNW 5.8 mph - N/A   Mostly Cloudy
3:13 AM 61.5 °F 50.5 °F 67% 29.96 in 10.0 mi NNW 6.9 mph - N/A   Mostly Cloudy
3:34 AM 60.8 °F 50.4 °F 68% 29.97 in 10.0 mi NW 8.1 mph - N/A   Scattered Clouds
3:53 AM 60.6 °F 49.6 °F 67% 29.98 in 10.0 mi NW 6.9 mph - N/A   Scattered Clouds
4:13 AM 60.1 °F 49.3 °F 67% 29.98 in 10.0 mi NNW 9.2 mph - N/A   Clear
4:34 AM 59.9 °F 49.3 °F 68% 29.98 in 10.0 mi North 9.2 mph - N/A   Clear
4:53 AM 58.3 °F 49.8 °F 73% 29.98 in 10.0 mi North 5.8 mph - N/A   Clear
5:13 AM 57.2 °F 49.6 °F 76% 29.99 in 10.0 mi Calm Calm - N/A   Clear
5:33 AM 56.1 °F 49.1 °F 77% 30.00 in 10.0 mi Calm Calm - N/A   Clear
5:54 AM 56.3 °F 49.5 °F 78% 30.00 in 10.0 mi Calm Calm - N/A   Clear
6:13 AM 57.2 °F 49.5 °F 75% 30.01 in 10.0 mi Calm Calm - N/A   Clear
6:34 AM 58.5 °F 50.4 °F 74% 30.02 in 10.0 mi NNW 4.6 mph - N/A   Clear
6:53 AM 59.9 °F 51.1 °F 73% 30.03 in 10.0 mi NNW 4.6 mph - N/A   Clear
7:14 AM 60.8 °F 50.5 °F 69% 30.04 in 10.0 mi North 4.6 mph - N/A   Clear
7:33 AM 61.7 °F 51.4 °F 69% 30.04 in 10.0 mi North 6.9 mph - N/A   Clear
7:53 AM 62.6 °F 52.2 °F 69% 30.04 in 10.0 mi North 6.9 mph - N/A   Clear
8:14 AM 63.0 °F 52.5 °F 69% 30.04 in 10.0 mi NNE 9.2 mph - N/A   Clear
8:33 AM 63.7 °F 52.5 °F 67% 30.04 in 10.0 mi North 6.9 mph - N/A   Clear
8:53 AM 64.4 °F 52.2 °F 64% 30.06 in 10.0 mi North 4.6 mph - N/A   Clear
9:14 AM 65.5 °F 53.8 °F 66% 30.06 in 10.0 mi North 4.6 mph - N/A   Clear
9:33 AM 66.2 °F 54.1 °F 65% 30.06 in 10.0 mi NNE 8.1 mph - N/A   Clear
9:53 AM 66.9 °F 55.2 °F 66% 30.07 in 10.0 mi North 8.1 mph - N/A   Clear
10:14 AM 67.5 °F 55.0 °F 64% 30.07 in 10.0 mi NNE 10.4 mph - N/A   Clear
10:33 AM 68.2 °F 55.8 °F 64% 30.07 in 10.0 mi North 8.1 mph - N/A   Clear
10:53 AM 68.9 °F 55.8 °F 63% 30.08 in 10.0 mi NNW 6.9 mph - N/A   Clear
11:14 AM 69.8 °F 55.8 °F 61% 30.09 in 10.0 mi NE 8.1 mph - N/A   Clear
11:33 AM 70.7 °F 57.0 °F 62% 30.09 in 10.0 mi North 5.8 mph - N/A   Clear
11:53 AM 71.4 °F 56.7 °F 60% 30.09 in 10.0 mi North 6.9 mph - N/A   Clear
12:14 PM 72.7 °F 55.9 °F 56% 30.09 in 10.0 mi North 9.2 mph 16.1 mph N/A   Clear
12:33 PM 73.2 °F 54.9 °F 52% 30.08 in 10.0 mi North 10.4 mph - N/A   Clear
12:53 PM 73.8 °F 54.0 °F 50% 30.07 in 10.0 mi NNE 10.4 mph - N/A   Clear
1:14 PM 74.3 °F 53.1 °F 47% 30.08 in 10.0 mi NNE 11.5 mph - N/A   Clear
1:33 PM 74.8 °F 53.1 °F 47% 30.08 in 10.0 mi NE 11.5 mph 16.1 mph N/A   Clear
1:53 PM 75.2 °F 52.5 °F 45% 30.08 in 10.0 mi North 5.8 mph - N/A   Scattered Clouds
2:14 PM 75.2 °F 54.0 °F 47% 30.07 in 10.0 mi NE 9.2 mph - N/A   Scattered Clouds
2:33 PM 75.6 °F 52.9 °F 45% 30.07 in 10.0 mi NNE 6.9 mph - N/A   Scattered Clouds
2:53 PM 76.3 °F 53.2 °F 45% 30.07 in 10.0 mi North 6.9 mph - N/A   Scattered Clouds
3:14 PM 77.2 °F 53.8 °F 44% 30.07 in 10.0 mi NNE 9.2 mph - N/A   Clear
3:33 PM 76.8 °F 52.5 °F 43% 30.06 in 10.0 mi North 10.4 mph - N/A   Clear
3:54 PM 77.0 °F 51.8 °F 41% 30.05 in 10.0 mi NE 9.2 mph - N/A   Clear
4:13 PM 77.0 °F 53.1 °F 43% 30.05 in 10.0 mi NE 9.2 mph - N/A   Clear
4:34 PM 77.0 °F 52.2 °F 42% 30.04 in 10.0 mi NNE 12.7 mph - N/A   Clear
4:53 PM 77.4 °F 52.2 °F 41% 30.05 in 10.0 mi NE 9.2 mph 18.4 mph N/A   Clear
5:13 PM 77.7 °F 52.5 °F 41% 30.04 in - NNE 6.9 mph - N/A   Clear
5:34 PM 77.4 °F 53.6 °F 44% 30.04 in 10.0 mi NNE 9.2 mph - N/A   Scattered Clouds
5:53 PM 77.0 °F 52.7 °F 43% 30.05 in 10.0 mi NNE 10.4 mph - N/A   Scattered Clouds
6:13 PM 76.8 °F 52.3 °F 42% 30.05 in 10.0 mi NNE 9.2 mph - N/A   Clear
6:34 PM 76.6 °F 52.0 °F 42% 30.06 in 10.0 mi ENE 6.9 mph - N/A   Clear
6:53 PM 76.3 °F 52.3 °F 43% 30.05 in 10.0 mi NE 6.9 mph - N/A   Clear
7:13 PM 75.7 °F 53.1 °F 45% 30.06 in 10.0 mi NE 6.9 mph - N/A   Clear
7:33 PM 75.4 °F 52.3 °F 44% 30.06 in 10.0 mi ENE 4.6 mph - N/A   Clear
7:54 PM 75.0 °F 53.2 °F 47% 30.06 in 10.0 mi ENE 8.1 mph - N/A   Clear
8:13 PM 73.6 °F 54.3 °F 51% 30.06 in 10.0 mi ENE 5.8 mph - N/A   Clear
8:33 PM 72.7 °F 55.8 °F 55% 30.06 in 10.0 mi ENE 3.5 mph - N/A   Clear
8:54 PM 70.7 °F 55.6 °F 59% 30.06 in 10.0 mi Calm Calm - N/A   Clear
9:13 PM 68.2 °F 57.0 °F 67% 30.06 in 10.0 mi Calm Calm - N/A   Clear
9:33 PM 66.4 °F 58.3 °F 75% 30.06 in 10.0 mi Calm Calm - N/A   Clear
9:54 PM 65.5 °F 57.7 °F 76% 30.06 in 10.0 mi Calm Calm - N/A   Clear
10:13 PM 64.4 °F 58.8 °F 82% 30.06 in 7.0 mi Calm Calm - N/A   Clear
10:33 PM 63.1 °F 58.6 °F 85% 30.06 in 10.0 mi Calm Calm - N/A   Clear
10:54 PM 62.1 °F 58.1 °F 87% 30.06 in 10.0 mi Calm Calm - N/A   Clear
11:13 PM 61.9 °F 57.7 °F 86% 30.06 in 10.0 mi Calm Calm - N/A   Clear
11:33 PM 61.2 °F 57.4 °F 87% 30.06 in 10.0 mi Calm Calm - N/A   Clear
11:54 PM 60.3 °F 57.0 °F 89% 30.07 in 10.0 mi Calm Calm - N/A   Clear